Regional Weather Roundup
Issued by NWS

Home | Current Version | Previous Version | Text Only | Print | Product List | Glossary Off
Versions: 1 2 3 4 5 6 7 8 9 10 11 12 13 14 15 16 17 18 19 20 21 22 23 24 25 26 27

000
ASUS45 KCYS 181410
RWRWY

WYOMING REGIONAL WEATHER ROUNDUP
NATIONAL WEATHER SERVICE CHEYENNE WY
800 AM MDT FRI APR 18 2014

NOTE:  "FAIR" INDICATES FEW OR NO CLOUDS BELOW 12,000 FEET
WITH NO SIGNIFICANT WEATHER AND/OR OBSTRUCTIONS TO VISIBILITY.

WYZ001-181500-
YELLOWSTONE NATIONAL PARK

CITY           SKY/WX    TMP DP  RH WIND       PRES   REMARKS
LK YELLOWSTONE   N/A     32  32 100 CALM      29.90S
W YELLOWSTONE  NOT AVBL

$$
WYZ002>013-054>058-071-098>099-181500-
NORTHERN WYOMING

CITY           SKY/WX    TMP DP  RH WIND       PRES   REMARKS
JACKSON        SUNNY     37  32  81 CALM      29.88S
CODY           MOSUNNY   48  36  61 SE7       29.75S
GREYBULL       CLOUDY    45  36  70 CALM      29.73F
WORLAND        CLOUDY    49  33  54 SE12      29.74F
SHERIDAN       PTSUNNY   40  34  79 N6        29.70F
BUFFALO        PTSUNNY   54  27  35 S6        29.74F
GILLETTE       CLOUDY    46  33  60 S17       29.76R
HULETT         FAIR     N/A N/A N/A SW5       29.80
NEWCASTLE      FAIR      52  34  50 SE8       29.85

$$
WYZ014>020-022>026-101>103-181500-
CENTRAL WYOMING

CITY           SKY/WX    TMP DP  RH WIND       PRES   REMARKS
BIG PINEY      CLOUDY    33  24  69 MISG      29.94R
PINEDALE       CLOUDY    32  32 100 CALM      29.95R
DUBOIS         FAIR      37  28  70 CALM      29.84S
LANDER         PTSUNNY   43  26  51 VRB3      29.81S
RIVERTON       PTSUNNY   40  23  50 NW3       29.82S
CASPER         CLOUDY    53  27  36 SW18      29.84F
DOUGLAS        CLOUDY    48  35  60 CALM      29.88S

$$
WYZ021-027>030-104>119-181500-
SOUTHERN WYOMING

CITY           SKY/WX    TMP DP  RH WIND       PRES   REMARKS
EVANSTON       PTSUNNY   50  23  34 SW10      29.94R
KEMMERER       CLOUDY    46  25  42 SW12      29.95R
FORT BRIDGER   FAIR      48  24  39 S5        29.96S
ROCK SPRINGS   PTSUNNY   55  23  28 S12G21    29.94S
DIXON          FAIR      42  30  62 S6        30.06R
RAWLINS        PTSUNNY   51  23  33 S22G30    29.97S
SARATOGA       FAIR      50  25  37 S13G20    30.04R
LARAMIE        PTSUNNY   48  23  37 S12       30.05R
CHEYENNE       MOSUNNY   48  32  53 SW9       29.99R
TORRINGTON     PTSUNNY   45  37  73 E8        29.90R
PINE BLUFFS    FAIR      43  37  81 S9        29.98S

$$



USA.gov is the U.S. government's official web portal to all federal, state and local government web resources and services.